This demonstration page uses our WeatherBlox Daily Observations layout. Learn more.

Left ArrowRight Arrow

38.20091, -84.87328

Hourly Observations for August 15, 2017

Temp ( °F °C ) Dew Point ( °F °C ) Humidity (%) Winds ( mph kmh ) Pressure ( in mb ) Visibility ( mi km ) Precip ( " mm )
12:53 am 00:53 Mostly Clear with Mist and Fog 72 22.2 69 20.6 91 91 Calm 29.86 1011 5 8 0.00 0.00
1:53 am 01:53 Clear 71 21.7 68 20 90 90 Calm 29.85 1011 7 11 0.00 0.00
2:11 am 02:11 Mostly Clear with Mist and Fog 71 21.7 68 20 90 90 Calm 29.85 1011 2 3 0.00 0.00
2:21 am 02:21 Mostly Cloudy with Mist and Fog 71 21.7 68 20 90 90 Calm 29.85 1011 6 10 0.00 0.00
2:53 am 02:53 Partly Cloudy with Mist and Fog 70 21.1 68 20 93 93 SSW 3 6 29.84 1011 4 6 0.00 0.00
3:47 am 03:47 Mostly Cloudy with Mist and Fog 70 21 66 19 88 88 Calm 29.83 1010 2 3 0.00 0.00
3:53 am 03:53 Mostly Cloudy with Mist and Fog 70 21.1 67 19.4 90 90 Calm 29.84 1010 2 2 0.00 0.00
3:59 am 03:59 Mostly Cloudy with Mist and Fog 70 21.1 68 20 93 93 Calm 29.83 1010 3 5 0.00 0.00
4:11 am 04:11 Partly Cloudy with Mist and Fog 70 21.1 67 19.4 90 90 Calm 29.83 1010 4 6 0.00 0.00
4:24 am 04:24 Mostly Cloudy with Mist and Fog 69 20.6 67 19.4 93 93 NW 3 6 29.85 1011 3 4 0.00 0.00
4:27 am 04:27 Mostly Cloudy with Mist and Fog 70 21.1 67 19.4 90 90 Calm 29.85 1011 1 2 0.00 0.00
4:34 am 04:34 Mostly Cloudy with Fog 70 21.1 67 19.4 90 90 Calm 29.85 1011 1 1 0.00 0.00
4:53 am 04:53 Mostly Cloudy with Fog 70 21.1 67 19.4 90 90 Calm 29.85 1011 0 0 0.00 0.00
5:09 am 05:09 Cloudy with Mist and Fog 69 20.6 67 19.4 93 93 NNW 3 6 29.85 1011 1 2 0.00 0.00
5:13 am 05:13 Mostly Cloudy with Mist and Fog 69 20.6 67 19.4 93 93 Calm 29.85 1011 3 5 0.00 0.00
5:20 am 05:20 Cloudy with Mist and Fog 69 20.6 67 19.4 93 93 Calm 29.85 1011 5 8 0.00 0.00
5:53 am 05:53 Cloudy 71 21.7 68 20 90 90 NNW 3 6 29.85 1011 7 11 0.00 0.00
6:53 am 06:53 Cloudy 71 21.7 68 20 90 90 Calm 29.87 1012 8 13 0.00 0.00
7:53 am 07:53 Cloudy with Mist and Fog 71 21.7 68 20 90 90 Calm 29.90 1013 6 10 0.00 0.00
8:53 am 08:53 Cloudy 73 22.8 69 20.6 87 87 Calm 29.91 1013 10 16 0.00 0.00
9:53 am 09:53 Cloudy 75 23.9 68 20 79 79 Calm 29.91 1013 10 16 0.00 0.00
10:53 am 10:53 Mostly Sunny 79 26.1 68 20 69 69 Calm 29.92 1013 10 16 0.00 0.00
11:53 am 11:53 Sunny 82 27.8 70 21.1 67 67 Calm 29.93 1014 10 16 0.00 0.00
12:13 pm 12:13 Mostly Cloudy 82 27.8 68 20 63 63 WNW 8 13 29.94 1014 10 16 0.00 0.00
12:21 pm 12:21 Partly Cloudy 82 27.8 68 20 63 63 VRB 3 6 29.94 1014 10 16 0.00 0.00
12:53 pm 12:53 Mostly Cloudy 83 28.3 68 20 61 61 W 5 7 29.93 1014 10 16 0.00 0.00
1:53 pm 13:53 Mostly Sunny 84 28.9 67 19.4 57 57 W 6 9 29.93 1013 10 16 0.00 0.00
2:53 pm 14:53 Mostly Sunny 86 30 68 20 55 55 WSW 6 9 29.92 1013 10 16 0.00 0.00
3:53 pm 15:53 Sunny 88 31.1 68 20 52 52 NW 7 11 29.90 1013 10 16 0.00 0.00
4:53 pm 16:53 Sunny 87 30.6 67 19.4 51 51 VRB 5 7 29.89 1012 10 16 0.00 0.00
5:53 pm 17:53 Sunny 86 30 67 19.4 53 53 W 5 7 29.89 1012 10 16 0.00 0.00
6:53 pm 18:53 Sunny 85 29.4 68 20 57 57 NW 3 6 29.88 1012 10 16 0.00 0.00
7:53 pm 19:53 Sunny 81 27.2 70 21.1 69 69 Calm 29.90 1013 10 16 0.00 0.00
8:53 pm 20:53 Clear 77 25 70 21.1 79 79 Calm 29.91 1013 10 16 0.00 0.00
9:53 pm 21:53 Clear 76 24.4 70 21.1 82 82 Calm 29.93 1014 10 16 0.00 0.00
10:53 pm 22:53 Clear 75 23.9 69 20.6 82 82 Calm 29.95 1014 10 16 0.00 0.00
11:53 pm 23:53 Clear 73 22.8 69 20.6 87 87 Calm 29.95 1014 8 13 0.00 0.00

Powered by AerisWeather